Regional Weather Roundup
Issued by NWS Lake Charles, LA

Home | Current Version | Previous Version | Text Only | Print | Product List | Glossary On
Versions: 1 2 3 4 5 6 7 8 9 10 11 12 13 14 15 16 17 18 19 20 21 22 23 24 25 26 27 28 29 30 31 32 33 34 35 36 37 38 39 40 41 42 43 44 45 46 47 48 49 50
000
ASUS44 KLCH 221610
RWRLCH
RWRLCH
REGIONAL WEATHER ROUNDUP
NATIONAL WEATHER SERVICE LAKE CHARLES LA
1100 AM CDT MON SEP 22 2014

Note: "fair" indicates few or no clouds below 12,000 feet with no
significant weather and/or obstructions to visibility.


ACROSS SOUTHEAST TEXAS

CITY           SKY/WX    TMP DP  RH WIND       PRES   REMARKS
BEAUMONT       SUNNY     88  72  58 VRB5      30.07S
BEAUMONT CITY    N/A     85  72  65 N6        30.08S
ORANGE         SUNNY     84  72  66 N3        30.09S
JASPER         SUNNY     80  61  51 NE8       30.14S
$$

ACROSS CENTRAL LOUISIANA

CITY           SKY/WX    TMP DP  RH WIND       PRES   REMARKS
LEESVILLE      MOSUNNY   80  61  52 NE9       30.11S
FULLERTON        N/A     80  61  52 VRB5      30.09S
ALEXANDRIA INT CLOUDY    77  61  57 NE8       30.11R
ESLER FIELD    CLOUDY    77  62  59 NE8       30.12R
DERIDDER         N/A     80  65  60 NE3       30.12S
OAKDALE        SUNNY     80  67  63 N8        30.10R
OPELOUSAS        N/A     81  72  74 NE7       30.07S
$$

ACROSS SOUTHWEST AND SOUTH CENTRAL LOUISIANA

CITY           SKY/WX    TMP DP  RH WIND       PRES   REMARKS
SULPHUR        SUNNY     84  73  67 N10       30.09R
LAKE CHARLES   SUNNY     83  72  69 N12       30.08R
CHENNAULT INT  SUNNY     79  72  78 N7        30.08S
CAMERON PHI    SUNNY     84  73  70 N8        30.10S
DEQUINCY         N/A     80  69  68 N3        30.09F
JENNINGS         N/A     81  72  74 N8        30.07S
LAFAYETTE      SUNNY     84  73  69 NE8       30.07S
NEW IBERIA     SUNNY     86  73  65 N7        30.07R
ABBEVILLE        N/A     83  73  71 N6        30.06S
PATTERSON      SUNNY     84  72  65 N8        30.08S
SALT POINT       N/A     87  71  58 VRB6      30.04S
$$

SELECTED SITES ACROSS THE REGION

CITY           SKY/WX    TMP DP  RH WIND       PRES   REMARKS
HOUSTON BUSH   PTSUNNY   85  71  63 VRB3      30.08S
HOUSTON HOBBY  MOSUNNY   87  71  58 NE3       30.07F
GALVESTON      SUNNY     86  74  67 N8        30.08R
COLLEGE STAT   MOSUNNY   82  71  69 N10       30.12R
CONROE         MOSUNNY   82  71  69 NE6       30.10S
HUNTSVILLE     SUNNY     82  69  64 E5        30.12S
LUFKIN         SUNNY     84  62  47 NE9       30.14R
SHREVEPORT     MOSUNNY   79  54  41 NE15      30.17F
MONROE         SUNNY     79  54  41 NE16G22   30.17F
NATCHEZ MS     CLOUDY    77  63  61 N9        30.13R
BATON ROUGE    SUNNY     84  72  67 NE8       30.06F
N.O. INTL ARPT MOSUNNY   87  69  54 N7        30.05R
SLIDELL        SUNNY     85  70  60 VRB3      30.04F
$$

MARINE REPORTS

STATION/POSITION TIME  TEMP    WIND        PRES    VSBY  WAVE
                       AIR SEA DIR/SP/G                  HT/PER
                 (UTC) (F)     (DEG/KT/KT) (MB)    (MI)  (FT/S)
BUOY 30 S HIGH I 1600   81 84   20/  6/  8 1017.8R         2/ 5
SEA RIM ST PARK  1600   83      20/  7/  8 1018.7F
PORT ARTHUR      1600      83   20/  2/  4 1018.4S
SABINE PASS N    1600   83 83   10/  9/ 11 1018.5R
TEXAS POINT      1600   83 83  360/  8/ 10 1018.4F
CALCASIEU PASS   1600   82 84   20/  7/  9 1019.2S
LK CHARLES BEACH 1600   80 84              1018.7R
MARSH ISLAND     NOT AVBL
FRESH WATER LOCK 1600   82 83  360/  9/ 11 1017.7R
AMERADA PASS     1600   82 82   20/  1/  5 1017.5R
$$



USA.gov is the U.S. government's official web portal to all federal, state and local government web resources and services.